Location: Jenkins
(37.8542°N, 88.9276°W)
Time: 05:01:40
(UTC+00:00)

Daily predictions for brighter satellites

Satellite Brightness Start Highest point End
(mag) Time Altitude Azimuth Time Altitude Azimuth Time Altitude Azimuth
ERS-2 2.3 00:01:39 10° NNE 00:05:12 50° ESE 00:08:44 10° S
BREEZE-M DEB (TANK) 1.7 00:02:42 10° NW 00:05:39 74° NE 00:07:22 15° ESE
Cosmos 1939 Rocket 3.0 00:01:42 10° S 00:05:50 85° W 00:09:57 10° NNW
Cosmos 2263 Rocket 4.2 00:02:04 10° WSW 00:06:43 26° WNW 00:11:23 10° N
Okean 1-7 Rocket 3.6 00:03:33 10° S 00:08:03 72° E 00:12:36 10° NNE
Cosmos 44 4.0 00:07:31 10° S 00:11:37 32° ESE 00:14:12 19° ENE
Nadezhda 4 Rocket 3.9 00:07:26 10° S 00:13:38 69° E 00:19:49 10° NNE
Cosmos 1726 Rocket 4.0 00:10:10 10° NNW 00:14:30 66° W 00:18:51 10° S
PSLV R/B 4.1 00:10:42 10° NNE 00:14:51 55° E 00:18:58 10° S
Cosmos 1626 Rocket 3.8 00:13:52 10° SSE 00:18:00 44° E 00:22:11 10° NNE
EXPRESS MD2 4.4 00:11:16 10° NW 00:18:31 45° NNE 00:20:41 24° E
CZ-4 R/B 1.6 00:14:45 10° SSE 00:18:43 48° ENE 00:22:39 10° N
Lacrosse 5 2.7 00:15:45 10° NNW 00:20:12 30° NE 00:22:02 24° ENE
ARGOS 3.8 00:16:15 10° SE 00:20:55 32° ENE 00:25:37 10° N
ATLAS 3B R/B 4.3 00:14:32 10° NW 00:21:00 39° WSW 00:27:39 10° S
NOSS 2-1 (E) 3.9 00:18:21 10° S 00:21:20 27° ESE 00:21:39 26° ESE
Aureole 2 Rocket 3.0 00:19:24 10° SW 00:22:16 47° WNW 00:25:13 10° N
CZ-4B R/B 3.2 00:23:56 10° N 00:26:57 31° WNW 00:29:53 10° SW
Hubble Space Telescope 2.7 00:24:46 10° SW 00:27:53 21° S 00:30:03 14° SE
Cosmos 1689 Rocket 1.8 00:27:27 27° NNE 00:28:50 80° E 00:31:39 10° S
Meteor 2-13 Rocket 4.4 00:23:58 10° S 00:30:04 89° E 00:36:14 10° N
COSMO-SKYMED 1 3.8 00:29:01 10° N 00:33:08 43° WNW 00:37:14 10° SW
Cosmos 990 Rocket 4.1 00:28:39 10° S 00:33:41 51° ESE 00:36:47 22° NE
CZ-2C R/B 3.3 00:31:47 21° NE 00:34:44 36° E 00:39:50 10° SSE
IRS-1C Rocket 4.2 00:31:30 10° S 00:36:45 80° WSW 00:42:02 10° NNW
Cosmos 1844 3.8 00:33:50 10° SSW 00:39:27 81° WNW 00:44:56 11° NNE
NOAA 15 4.5 00:34:32 10° SSE 00:39:45 74° ENE 00:45:01 10° N
COSMOS 2455 4.1 00:34:29 10° WSW 00:40:04 39° NW 00:45:42 10° NNE
Okean-O 2.5 00:36:32 10° SSE 00:40:56 79° ENE 00:45:22 10° N
DMSP B5D1-3 4.4 00:43:51 10° NNE 00:48:58 84° ESE 00:54:03 10° SSW
Cosmos 2026 Rocket 3.9 00:44:42 10° S 00:50:40 61° E 00:56:44 10° NNE
CZ-2C R/B 4.1 00:51:11 10° S 00:56:10 48° W 01:01:29 10° NNW
H-2A R/B 1.9 00:51:55 10° S 00:56:51 83° WSW 01:01:56 10° NNW
Cosmos 1602 Rocket 3.5 00:53:50 10° S 00:58:09 85° W 01:00:31 27° N
Meteor 1-11 4.3 00:54:26 10° SSE 00:59:58 51° E 01:00:48 47° ENE
Cosmos 1844 Rocket 3.8 00:55:21 10° SW 01:00:42 43° WNW 01:06:04 10° N
Cosmos 923 Rocket 3.9 00:55:39 10° NNW 01:01:00 77° ENE 01:06:17 10° SSE
YAOGAN 1 3.0 00:56:59 10° S 01:01:15 62° W 01:05:32 10° NNW
Helios 1A Rocket 3.0 00:58:21 10° S 01:02:28 77° W 01:06:38 10° NNW
Cosmos 1898 Rocket 3.4 00:57:49 10° SSW 01:03:06 83° ESE 01:05:07 39° NNE
Cosmos 158 Rocket 4.0 00:58:49 10° NNW 01:04:12 90° E 01:09:35 10° SSE
Cosmos 1680 Rocket 3.3 01:03:03 10° NNW 01:08:17 66° ENE 01:08:27 66° E
Cosmos 2278 Rocket 3.3 01:05:03 10° S 01:08:10 29° SSE 01:08:10 29° SSE
NOSS 2-1 (C) 3.9 01:07:11 10° SW 01:09:57 46° W 01:09:57 46° W
Cosmos 2098 Rocket 4.2 01:03:49 10° S 01:10:38 74° E 01:18:04 10° N
USA 267 3.1 01:13:39 47° NE 01:15:46 81° SE 01:22:19 10° SW
X-37B 3.0 01:13:12 10° WNW 01:14:40 20° NW 01:14:40 20° NW
NOSS 2-1 (D) 4.3 01:13:09 10° SW 01:15:41 37° W 01:15:41 37° W
SJ 16-02 3.6 01:17:05 10° WSW 01:20:32 22° WNW 01:24:01 10° NNW
Meteor 2-8 Rocket 4.4 01:15:45 10° N 01:21:52 86° W 01:27:58 10° S
Meteor 2-15 4.5 01:16:22 10° N 01:30:10 - SSE 01:21:34 58° NE
CSL-04 Rocket 3.7 01:17:17 10° S 01:22:38 75° WSW 01:28:07 10° NNW
Cosmos 1455 4.4 01:20:23 10° NW 01:23:34 25° W 01:26:44 10° SSW
Cosmos 1340 4.1 01:22:20 10° SSW 01:25:06 36° WSW 01:25:06 36° WSW
Iridium 4 Rocket 4.0 01:22:48 10° N 01:28:20 63° W 01:33:25 10° SSW
ISS -0.7 01:29:09 10° WNW 01:29:48 12° NW 01:29:48 12° NW
Cosmos 1937 Rocket 3.8 01:32:41 10° SSW 01:37:47 66° W 01:37:47 66° W
USA 234 4.5 01:49:42 28° N 01:49:42 28° N 01:53:33 10° NNW
Lacrosse 5 3.5 01:58:29 10° NW 02:01:18 30° WNW 02:01:18 30° WNW
CZ-2C R/B 4.4 02:13:16 25° NW 02:14:51 29° WNW 02:19:35 10° SW
Atlas Centaur 2 4.1 09:56:30 31° SSE 09:56:37 31° SSE 10:03:43 10° E
Cosmos 2333 Rocket 3.8 10:20:17 26° NNE 10:20:17 26° NNE 10:22:40 10° NNE
Cosmos 2219 Rocket 3.6 10:20:31 29° NNE 10:20:31 29° NNE 10:23:12 10° NNE
COSMOS 2428 3.1 10:38:26 52° NNE 10:38:26 52° NNE 10:42:42 10° NNE
IRIDIUM 114 4.4 10:40:53 10° S 10:46:04 76° E 10:51:18 10° N
deb Chang Zheng 4 4.4 10:47:55 10° NNE 10:52:02 49° E 10:56:07 10° S
CZ-4B R/B 3.7 10:49:02 10° SSE 10:50:21 21° SE 10:50:21 21° SE
Cosmos 540 Rocket 4.4 10:49:07 10° S 10:53:58 47° ESE 10:58:52 10° NNE
IRIDIUM 103 4.2 10:50:01 10° S 10:55:13 88° W 11:00:28 10° N
Haruka 3.9 10:54:44 42° SSW 10:55:50 48° S 11:07:37 10° ESE
BREEZE-M DEB (TANK) 3.1 10:58:46 44° ESE 10:58:46 44° ESE 11:03:01 10° ENE
CZ-2C R/B 2.6 10:59:52 30° SSE 11:00:06 31° SSE 11:03:41 10° E
Cosmos 1461 3.3 11:01:19 60° N 11:01:19 60° N 11:05:20 10° NNE
ADEOS 3.4 10:56:02 10° N 11:08:36 - SSW 11:00:59 67° NW
Cosmos 990 Rocket 4.1 10:59:51 35° N 11:02:03 73° ENE 11:07:09 10° SSE
Meteor 2-10 4.0 10:58:41 10° SSW 11:04:22 79° W 11:09:55 10° N
OAO 2 Rocket 3.3 11:04:20 58° SSW 11:04:50 62° S 11:09:41 10° E
IRIDIUM 106 4.3 11:08:25 10° SSW 11:13:32 58° W 11:18:42 10° N
Cosmos 1892 Rocket 3.4 11:12:42 54° NNW 11:13:38 80° W 11:18:00 10° S
Meteor 1-24 Rocket 4.2 11:16:46 38° WSW 11:16:46 38° WSW 11:21:04 10° SSW
Cosmos 921 Rocket 4.3 11:21:01 26° N 11:21:01 26° N 11:23:05 10° N
Cosmos 1763 Rocket 3.6 11:21:23 45° W 11:21:49 46° WNW 11:26:51 10° N
SAR-Lupe-4 4.2 11:22:04 10° SSE 11:25:33 54° ENE 11:28:45 12° N
COSMO-SKYMED 1 2.4 11:21:39 10° S 11:25:57 71° WSW 11:28:26 25° NNW
Cosmos 841 Rocket 3.3 11:22:53 10° SSW 11:28:01 87° WNW 11:33:11 10° NNE
CZ-4B R/B 2.5 11:25:23 10° N 11:28:58 68° WNW 11:32:39 10° SSW
SJ 16-02 3.0 11:31:06 19° SW 11:31:06 19° SW 11:32:43 10° SSW
Cosmos 1898 Rocket 3.4 11:29:26 21° NNW 11:32:55 68° WSW 11:38:02 10° S
Gbstr 26 Del rocket 4.5 11:26:53 10° SW 11:34:10 86° SE 11:42:21 10° NE
SAR-Lupe-1 4.2 11:32:43 10° SSE 11:36:17 75° ENE 11:39:45 11° N
Lacrosse 5 rocket 3.2 11:34:24 13° N 11:36:44 21° NE 11:39:40 10° E
Chandra Rocket (1) 3.6 11:35:58 16° SW 11:37:51 21° SSW 11:40:08 10° SE
Lacrosse 4 Rocket 2.7 11:34:16 10° S 11:38:12 42° ESE 11:42:15 10° NE
H-2A R/B 2.5 11:34:37 10° N 11:38:19 73° WNW 11:42:01 10° SSW
BREEZE M DEB (TANK) 1.6 11:41:00 43° SSW 11:41:28 59° SE 11:44:13 10° ENE
Cosmos 1570 Rocket 3.9 11:37:05 10° SSW 11:42:18 79° WNW 11:47:33 10° NNE
Cosmos 1544 Rocket 3.5 11:39:10 10° SSW 11:43:22 54° W 11:47:37 10° N
SL-16 R/B 3.5 11:39:10 10° S 11:44:28 43° ESE 11:49:47 10° NE
FALCON 9 DEB 3.9 11:44:30 33° NW 11:44:32 33° NW 11:47:40 10° NNE
Atlas Centaur 2 3.7 11:39:07 14° WSW 11:45:41 49° S 11:53:50 10° ESE
GPS 2-04 Rocket1 4.2 11:45:43 21° WSW 11:47:15 26° SSW 11:50:45 10° SE
NOSS 0 Rocket 4.1 11:43:19 10° SW 11:49:14 47° WNW 11:55:11 10° NNE
Meteor 1-21 Rocket 4.2 11:43:46 10° NNW 11:49:30 78° W 11:55:19 10° S
Cosmos 2278 Rocket 2.1 11:44:25 10° NNW 11:50:07 80° WSW 11:55:46 10° SSE
Cosmos 1400 Rocket 2.8 11:46:37 10° S 11:50:41 89° E 11:54:48 10° N
CENTAUR R/B 4.0 11:47:05 10° S 11:52:08 36° ESE 11:57:57 10° NE
